Total_Precipitation_Accumulation
0.00 0.00 0.00 0.00 0.00 0.00 0.00 0.00 0.00 0.00 0.00 0.00 0.00 0.00 0.00 0.00 0.00 0.00 0.00 0.00 0.00 0.00 0.00 0.00 0.00 0.00 0.00 0.00 0.01 0.02 0.04 0.03 0.02 0.03 0.02 0.04 0.04 0.16 0.19 0.25 0.47 0.75 0.67 0.44
0.02 0.01 0.00 0.00 0.00 0.00 0.00 0.00 0.00 0.00 0.00 0.00 0.00 0.00 0.00 0.00 0.00 0.00 0.00 0.00 0.00 0.00 0.00 0.00 0.00 0.00 0.00 0.00 0.00 0.01 0.08 0.10 0.17 0.05 0.02 0.02 0.03 0.09 0.11 0.13 0.24 0.59 0.76 0.70
0.02 0.00 0.00 0.01 0.00 0.00 0.00 0.00 0.00 0.00 0.00 0.00 0.00 0.00 0.00 0.00 0.00 0.00 0.00 0.00 0.00 0.00 0.00 0.00 0.00 0.00 0.00 0.00 0.00 0.01 0.02 0.06 0.11 0.19 0.10 0.10 0.09 0.14 0.25 0.19 0.18 0.33 0.60 0.79
0.07 0.00 0.02 0.00 0.00 0.00 0.00 0.00 0.00 0.00 0.00 0.00 0.00 0.00 0.00 0.00 0.00 0.00 0.00 0.00 0.00 0.00 0.00 0.00 0.00 0.00 0.00 0.00 0.00 0.00 0.02 0.02 0.01 0.04 0.06 0.05 0.03 0.04 0.05 0.08 0.09 0.24 0.28 0.48
0.08 0.03 0.04 0.02 0.00 0.00 0.00 0.00 0.00 0.00 0.00 0.01 0.00 0.00 0.00 0.00 0.00 0.00 0.00 0.00 0.00 0.00 0.00 0.00 0.00 0.00 0.00 0.00 0.00 0.00 0.01 0.02 0.01 0.01 0.00 0.01 0.02 0.02 0.03 0.05 0.09 0.16 0.29 0.20
0.00 0.02 0.06 0.03 0.00 0.00 0.00 0.02 0.00 0.00 0.01 0.04 0.00 0.00 0.00 0.00 0.00 0.00 0.00 0.00 0.00 0.00 0.00 0.00 0.00 0.00 0.00 0.00 0.00 0.00 0.00 0.01 0.02 0.01 0.00 0.00 0.00 0.02 0.03 0.03 0.04 0.07 0.21 0.27
0.00 0.00 0.00 0.00 0.00 0.00 0.01 0.08 0.08 0.07 0.06 0.03 0.00 0.00 0.00 0.00 0.00 0.00 0.00 0.00 0.00 0.00 0.00 0.00 0.00 0.00 0.00 0.00 0.00 0.00 0.00 0.00 0.01 0.02 0.01 0.00 0.00 0.00 0.00 0.01 0.01 0.01 0.04 0.18
0.02 0.02 0.00 0.00 0.00 0.00 0.01 0.04 0.09 0.10 0.04 0.00 0.00 0.00 0.00 0.00 0.00 0.00 0.00 0.00 0.00 0.00 0.00 0.00 0.00 0.00 0.00 0.00 0.00 0.00 0.00 0.00 0.01 0.02 0.01 0.00 0.00 0.00 0.00 0.00 0.00 0.00 0.01 0.04
0.00 0.00 0.00 0.00 0.00 0.02 0.07 0.08 0.05 0.25 0.10 0.04 0.00 0.00 0.00 0.00 0.00 0.00 0.00 0.00 0.00 0.00 0.00 0.00 0.00 0.00 0.00 0.00 0.00 0.00 0.00 0.00 0.00 0.00 0.01 0.01 0.00 0.00 0.00 0.00 0.00 0.00 0.01 0.01
0.00 0.00 0.00 0.00 0.00 0.00 0.03 0.06 0.24 0.40 0.20 0.08 0.00 0.01 0.01 0.00 0.00 0.00 0.00 0.00 0.00 0.00 0.00 0.00 0.00 0.00 0.00 0.00 0.00 0.00 0.01 0.00 0.00 0.00 0.01 0.01 0.01 0.00 0.00 0.00 0.00 0.00 0.00 0.00
0.00 0.00 0.00 0.00 0.00 0.00 0.03 0.18 0.20 0.17 0.06 0.07 0.05 0.11 0.04 0.02 0.03 0.01 0.00 0.00 0.00 0.00 0.00 0.00 0.00 0.00 0.00 0.00 0.00 0.02 0.03 0.01 0.00 0.00 0.00 0.01 0.01 0.01 0.01 0.00 0.00 0.00 0.00 0.00
0.01 0.00 0.00 0.00 0.00 0.01 0.02 0.04 0.13 0.35 0.21 0.08 0.08 0.20 0.15 0.09 0.06 0.03 0.00 0.00 0.01 0.01 0.01 0.01 0.00 0.00 0.01 0.01 0.02 0.04 0.05 0.01 0.00 0.00 0.00 0.00 0.00 0.01 0.01 0.00 0.00 0.00 0.00 0.00
0.01 0.01 0.01 0.03 0.07 0.03 0.05 0.04 0.07 0.13 0.37 0.24 0.19 0.16 0.41 0.30 0.19 0.05 0.02 0.02 0.02 0.02 0.01 0.01 0.02 0.03 0.03 0.05 0.05 0.05 0.05 0.02 0.00 0.00 0.01 0.00 0.00 0.00 0.00 0.00 0.00 0.00 0.00 0.00
0.03 0.03 0.01 0.02 0.05 0.08 0.05 0.02 0.07 0.32 0.60 0.26 0.10 0.06 0.58 0.68 0.43 0.14 0.07 0.05 0.06 0.05 0.04 0.04 0.06 0.13 0.21 0.24 0.20 0.17 0.16 0.14 0.06 0.02 0.01 0.01 0.01 0.01 0.00 0.00 0.00 0.00 0.00 0.00
0.05 0.09 0.05 0.02 0.00 0.01 0.03 0.04 0.06 0.22 0.22 0.25 0.05 0.05 0.20 0.52 0.70 0.56 0.24 0.11 0.09 0.08 0.08 0.09 0.11 0.14 0.24 0.35 0.36 0.32 0.26 0.19 0.11 0.06 0.05 0.05 0.05 0.05 0.02 0.02 0.00 0.00 0.00 0.00
0.05 0.09 0.08 0.02 0.00 0.00 0.00 0.02 0.04 0.06 0.07 0.09 0.06 0.07 0.15 0.38 0.42 0.66 0.51 0.27 0.14 0.11 0.06 0.03 0.04 0.06 0.06 0.09 0.14 0.13 0.12 0.12 0.09 0.09 0.06 0.04 0.03 0.04 0.04 0.04 0.02 0.03 0.03 0.03
0.03 0.02 0.07 0.11 0.02 0.00 0.00 0.00 0.01 0.04 0.08 0.08 0.12 0.11 0.13 0.30 0.41 0.37 0.52 0.44 0.32 0.13 0.07 0.05 0.03 0.03 0.01 0.00 0.01 0.03 0.04 0.03 0.03 0.05 0.08 0.07 0.05 0.03 0.02 0.03 0.04 0.06 0.06 0.05
0.02 0.02 0.05 0.06 0.05 0.04 0.00 0.00 0.00 0.01 0.06 0.12 0.10 0.13 0.25 0.23 0.38 0.23 0.31 0.45 0.45 0.30 0.07 0.02 0.02 0.02 0.02 0.00 0.00 0.01 0.04 0.09 0.12 0.08 0.03 0.02 0.05 0.05 0.02 0.00 0.00 0.01 0.03 0.04
0.00 0.01 0.07 0.06 0.07 0.03 0.00 0.00 0.01 0.04 0.12 0.14 0.16 0.30 0.31 0.14 0.22 0.25 0.23 0.24 0.32 0.34 0.31 0.14 0.02 0.00 0.00 0.00 0.00 0.00 0.00 0.00 0.04 0.04 0.03 0.00 0.01 0.03 0.08 0.04 0.01 0.01 0.02 0.03
0.00 0.00 0.03 0.04 0.09 0.04 0.00 0.00 0.00 0.03 0.16 0.14 0.11 0.17 0.21 0.25 0.37 0.48 0.43 0.24 0.19 0.18 0.21 0.23 0.18 0.04 0.01 0.00 0.00 0.00 0.00 0.00 0.00 0.00 0.00 0.00 0.00 0.00 0.03 0.05 0.05 0.08 0.08 0.09
0.02 0.02 0.02 0.02 0.05 0.01 0.00 0.00 0.00 0.09 0.18 0.05 0.09 0.10 0.23 0.41 0.52 0.74 0.58 0.35 0.14 0.06 0.03 0.02 0.03 0.07 0.06 0.02 0.00 0.00 0.00 0.00 0.00 0.00 0.00 0.00 0.00 0.00 0.01 0.03 0.05 0.07 0.13 0.13
0.05 0.04 0.03 0.03 0.05 0.02 0.00 0.01 0.05 0.10 0.07 0.07 0.13 0.18 0.21 0.50 0.63 0.68 0.41 0.18 0.01 0.00 0.00 0.00 0.00 0.00 0.00 0.01 0.01 0.01 0.00 0.00 0.00 0.00 0.00 0.00 0.00 0.01 0.03 0.05 0.08 0.08 0.08 0.09
0.33 0.10 0.05 0.01 0.01 0.09 0.07 0.06 0.04 0.04 0.08 0.21 0.30 0.68 0.62 0.67 0.86 0.84 0.46 0.17 0.03 0.00 0.00 0.00 0.00 0.00 0.00 0.00 0.00 0.01 0.01 0.01 0.02 0.02 0.01 0.03 0.02 0.04 0.06 0.09 0.12 0.10 0.10 0.13
0.21 0.11 0.22 0.16 0.06 0.20 0.31 0.08 0.03 0.02 0.04 0.14 0.50 0.85 1.26 1.07 0.88 0.54 0.20 0.04 0.00 0.00 0.00 0.00 0.00 0.01 0.03 0.02 0.03 0.05 0.06 0.07 0.09 0.11 0.12 0.11 0.11 0.13 0.08 0.07 0.08 0.09 0.14 0.21
0.51 0.24 0.16 0.24 0.51 0.38 0.22 0.09 0.11 0.16 0.09 0.09 0.15 0.25 0.29 0.24 0.14 0.09 0.02 0.00 0.01 0.01 0.01 0.01 0.01 0.02 0.04 0.04 0.06 0.08 0.07 0.08 0.09 0.10 0.12 0.16 0.17 0.17 0.20 0.25 0.29 0.27 0.40 0.42
0.78 0.71 0.36 0.46 1.19 0.99 0.50 0.24 0.31 0.38 0.38 0.25 0.17 0.16 0.17 0.09 0.06 0.04 0.03 0.02 0.02 0.03 0.03 0.01 0.02 0.03 0.07 0.11 0.18 0.25 0.27 0.28 0.31 0.34 0.34 0.34 0.33 0.38 0.43 0.47 0.56 0.67 0.71 0.71